{"data":{"norad_id":63509,"intl_designator":"2025-071S","name":"STARLINK-33678","alt_names":[],"object_type":"PAYLOAD","status":"ACTIVE","operator":null,"country":"US","launch_date":"2025-04-07","launch_site_code":"AFWTR","launch_vehicle":null,"mission":null,"orbit_class":"UNKNOWN","rcs_meters":null,"size_class":null,"mass_kg":null,"dimensions":null,"purposes":["comms"],"wikipedia_slug":null,"has_3d_model":false,"image_url":null,"decayed_at":null,"tle_current":{"epoch":"2026-09-20T03:30:26.660160Z","epoch_age_seconds":186133,"freshness":"STALE","line1":"1 63509U 25071S   26263.14614190  .00005455  00000+0  18737-3 0  9990","line2":"2 63509  53.1593 315.1228 0001294  84.7227 275.3922 15.31707938 82294","mean_motion":15.31707938,"eccentricity":0.0001294,"inclination_deg":53.1593,"raan_deg":315.1228,"arg_perigee_deg":84.7227,"mean_anomaly_deg":275.3922,"bstar":0.00018737,"rev_number":8229,"period_min":94.012700742431,"perigee_km":469.83009094167,"apogee_km":471.60257418413,"semimajor_km":6848.8533325629,"source":"CELESTRAK","updated_at":"2026-09-21T09:00:35.016511Z"}}}